Location: Alphen
(52.1351°N, 4.6549°E)
Time: 02:13:52
(UTC+00:00)

Cosmos 1655 Rocket - Pass Details

Date: 27 January 2021
Orbit: 971 x 1006 km, 83.0° (Epoch: 26 February)

Event Time Altitude Azimuth Distance (km) Brightness Sun altitude
Rises 05:42:53 0° 350° (N) 3,686 6.8 -16.1°
Reaches altitude 10° 05:45:25 10° 353° (N) 2,737 6.2 -15.7°
Maximum altitude 05:51:41 71° 78° (ENE) 1,038 4.3 -14.8°
Drops below altitude 10° 05:57:57 10° 162° (SSE) 2,741 6.8 -13.8°
Sets 06:00:30 0° 165° (SSE) 3,691 7.4 -13.5°
